Location: Newark
(48.2308°N, 120.8549°W)
Time: 05:32:49
(UTC+00:00)

FENGYUN 1C DEB - Pass Details

Date: 05 February 2022
Orbit: 822 x 948 km, 99.2° (Epoch: 25 May)

Event Time Altitude Azimuth Distance (km) Brightness Sun altitude
Rises 03:08:34 0° 160° (SSE) 3,611 ? -20.3°
Reaches altitude 10° 03:11:01 10° 160° (SSE) 2,666 ? -20.7°
Maximum altitude 03:17:01 84° 73° (ENE) 950 ? -21.7°
Drops below altitude 10° 03:22:56 10° 346° (NNW) 2,630 ? -22.7°
Sets 03:25:19 0° 346° (NNW) 3,559 ? -23.1°
